ZF1RC George Town KY current weather conditions

sailwx.info

Wind from 150

Air temperature 26.7° C
Dewpoint 23.3° C

Last reported at 2015-Apr-21 07:50 UTC.
Time now 2015-Apr-21 08:19 UTC

Location: N 19°16' W 081°23'.
View on Google Maps.

See reports from other nearby stations

  
Tides and Currents Weather Stations Pressure Air Temp Water Temp Dewpoint Dewpoint Depression Visibility Wind Speed Wind Dir Waves Ship Positions
date/time (UTC)wind fromknots sea level pressurealtimeterstation pressurevisibilityair tempwater tempwave heightnotes
2015-Apr-21 07:50 150 26.7
2015-Apr-21 07:40 068 26.7
2015-Apr-21 07:30 121 0 gusting 0 26.7
2015-Apr-21 07:20 026 0 gusting 0 26.7
2015-Apr-21 07:10 130 0 gusting 0 26.7
2015-Apr-21 07:00 086 26.7
2015-Apr-21 06:50 065 26.7
2015-Apr-21 06:40 093 0 gusting 0 26.7
2015-Apr-21 06:30 095 26.7
2015-Apr-21 06:20 096 0 gusting 0 26.7
2015-Apr-21 06:10 190 26.7
2015-Apr-21 06:00 117 26.7
2015-Apr-21 05:50 257 26.7
2015-Apr-21 05:40 167 0 gusting 1 26.7
2015-Apr-21 05:30 172 0 gusting 0 26.7
2015-Apr-21 05:20 310 26.7
2015-Apr-21 05:10 267 26.7
2015-Apr-21 05:00 085 0 gusting 1 26.7
2015-Apr-21 04:50 324 26.7
2015-Apr-21 04:40 025 0 gusting 0 26.7
2015-Apr-21 04:30 118 26.7
2015-Apr-21 04:20 040 0 gusting 0 26.7
2015-Apr-21 04:10 230 26.7
2015-Apr-21 04:00 200 26.7
2015-Apr-21 03:50 238 0 gusting 1 26.7
2015-Apr-21 03:40 169 26.7
2015-Apr-21 03:30 165 26.7
2015-Apr-21 03:20 103 26.7
2015-Apr-21 03:10 175 26.7
2015-Apr-21 03:00 194 26.7
2015-Apr-21 02:50 129 26.7
2015-Apr-21 02:40 112 26.7
2015-Apr-21 02:30 245 26.7
2015-Apr-21 02:20 088 0 gusting 1 26.7
2015-Apr-21 02:10 124 27.2
2015-Apr-21 02:00 132 0 gusting 0 26.7
2015-Apr-21 01:50 257 27.2
2015-Apr-21 01:40 024 26.7
2015-Apr-21 01:30 277 26.7
2015-Apr-21 01:20 028 26.7
2015-Apr-21 01:10 011 0 gusting 1 27.2
2015-Apr-21 01:00 274 27.2
2015-Apr-21 00:50 027 27.2
2015-Apr-21 00:40 244 0 gusting 1 27.2
2015-Apr-21 00:30 079 0 gusting 0 27.2
2015-Apr-21 00:20 001 27.2
2015-Apr-21 00:10 181 0 gusting 0 27.2
2015-Apr-21 00:00 158 0 gusting 1 27.2
2015-Apr-20 23:50 117 27.2
2015-Apr-20 23:40 173 0 gusting 0 27.2
2015-Apr-20 23:30 324 27.2
2015-Apr-20 23:20 016 27.8
2015-Apr-20 23:10 003 27.8
2015-Apr-20 23:00 198 27.8
2015-Apr-20 22:54 208 0 gusting 0 27.8
2015-Apr-20 22:50 014 27.8
2015-Apr-20 22:40 048 28.3
2015-Apr-20 22:30 134 0 gusting 4 28.9
2015-Apr-20 22:20 093 1 gusting 4 28.9
2015-Apr-20 22:10 297 0 gusting 2 28.9
2015-Apr-20 22:00 333 0 gusting 2 28.9
2015-Apr-20 21:50 224 1 gusting 2 29.4
2015-Apr-20 21:40 071 0 gusting 4 29.4
2015-Apr-20 21:30 094 0 gusting 6 29.4
2015-Apr-20 21:20 147 0 gusting 1 30.0
2015-Apr-20 21:10 147 30.0
2015-Apr-20 21:00 115 0 gusting 4 30.0
2015-Apr-20 20:50 147 30.6
2015-Apr-20 20:40 206 1 gusting 4 30.0
2015-Apr-20 20:30 168 30.0
2015-Apr-20 20:20 061 30.0
2015-Apr-20 20:10 135 0 gusting 1 30.0
2015-Apr-20 20:00 121 1 gusting 5 30.0
2015-Apr-20 19:50 062 0 gusting 5 30.0
2015-Apr-20 19:40 157 0 gusting 5 30.0
2015-Apr-20 19:30 014 1 gusting 2 30.6
2015-Apr-20 19:20 134 30.6
2015-Apr-20 19:10 302 2 gusting 5 30.0
2015-Apr-20 19:00 154 0 gusting 2 29.4
2015-Apr-20 18:50 077 0 gusting 1 30.0
2015-Apr-20 18:40 122 30.0
2015-Apr-20 18:30 169 30.6
2015-Apr-20 18:20 148 4 gusting 5 30.0
2015-Apr-20 18:10 101 1 gusting 11 30.6
2015-Apr-20 18:00 227 0 gusting 5 30.0
2015-Apr-20 17:50 175 4 gusting 5 30.6
2015-Apr-20 17:40 190 1 gusting 2 30.6
2015-Apr-20 17:30 196 0 gusting 1 30.6
2015-Apr-20 17:20 064 30.6
2015-Apr-20 17:10 212 31.1
2015-Apr-20 17:00 253 0 gusting 0 30.6
2015-Apr-20 16:50 185 0 gusting 1 30.0
2015-Apr-20 16:40 233 30.6
2015-Apr-20 16:30 018 30.6
2015-Apr-20 16:20 205 0 gusting 1 30.6
2015-Apr-20 16:10 233 30.6
2015-Apr-20 16:00 157 30.6
2015-Apr-20 15:50 078 30.0
2015-Apr-20 15:40 056 30.0
2015-Apr-20 15:30 239 0 gusting 0 30.0
2015-Apr-20 15:20 102 0 gusting 0 30.0
2015-Apr-20 15:10 138 0 gusting 0 29.4
2015-Apr-20 15:00 273 0 gusting 0 29.4
2015-Apr-20 14:50 107 0 gusting 1 29.4
2015-Apr-20 14:40 095 0 gusting 0 30.0
2015-Apr-20 14:30 172 29.4
2015-Apr-20 14:20 061 29.4
2015-Apr-20 14:10 081 29.4
2015-Apr-20 14:00 106 0 gusting 0 29.4
2015-Apr-20 13:50 010 29.4
2015-Apr-20 13:40 066 0 gusting 0 29.4
2015-Apr-20 13:30 056 28.9
2015-Apr-20 13:20 061 0 gusting 0 28.9
2015-Apr-20 13:10 224 28.9
2015-Apr-20 13:00 158 0 gusting 2 28.3
2015-Apr-20 12:50 218 28.3
2015-Apr-20 12:40 165 28.3
2015-Apr-20 12:30 110 28.3
2015-Apr-20 12:20 170 27.8
2015-Apr-20 12:10 163 0 gusting 0 27.8
2015-Apr-20 12:00 165 27.2
2015-Apr-20 11:50 117 0 gusting 2 26.7
2015-Apr-20 11:40 156 26.1
2015-Apr-20 11:30 174 26.1
2015-Apr-20 11:20 148 0 gusting 0 25.6
2015-Apr-20 11:10 086 25.6
2015-Apr-20 11:00 101 25.6
2015-Apr-20 10:50 157 25.6
2015-Apr-20 10:40 150 25.6
2015-Apr-20 10:30 129 25.6
2015-Apr-20 10:20 170 25.6
2015-Apr-20 10:10 110 25.6
2015-Apr-20 10:00 144 25.6
2015-Apr-20 09:50 001 0 gusting 0 25.6
2015-Apr-20 09:40 139 0 gusting 1 25.6
2015-Apr-20 09:30 276 25.6
2015-Apr-20 09:20 156 0 gusting 0 25.6
2015-Apr-20 09:10 185 0 gusting 0 25.6
2015-Apr-20 09:00 046 25.6
2015-Apr-20 08:50 263 25.6
2015-Apr-20 08:40 251 25.6
2015-Apr-20 08:30 147 25.6
2015-Apr-20 08:20 193 25.6
2015-Apr-20 08:10 100 25.6
2015-Apr-20 08:00 186 0 gusting 2 25.6
2015-Apr-20 07:50 302 26.1
2015-Apr-20 07:40 156 0 gusting 0 25.6
2015-Apr-20 07:30 263 25.6
2015-Apr-20 07:20 202 25.6
2015-Apr-20 07:10 287 25.6
2015-Apr-20 07:00 030 25.6
2015-Apr-20 06:50 114 25.6
2015-Apr-20 06:40 135 0 gusting 0 26.1
2015-Apr-20 06:30 089 25.6
2015-Apr-20 06:20 055 25.6
2015-Apr-20 06:10 184 0 gusting 0 25.6
2015-Apr-20 06:00 196 25.6
2015-Apr-20 05:50 107 26.1
2015-Apr-20 05:40 153 25.6
2015-Apr-20 05:30 110 25.6
2015-Apr-20 05:20 329 25.6
2015-Apr-20 05:10 164 0 gusting 0 25.6
2015-Apr-20 05:00 098 25.6
2015-Apr-20 04:50 188 26.1
2015-Apr-20 04:40 201 26.1
2015-Apr-20 04:30 085 26.1
2015-Apr-20 04:20 315 0 gusting 0 25.6
2015-Apr-20 04:10 229 26.1
2015-Apr-20 04:00 089 26.1
2015-Apr-20 03:50 213 0 gusting 0 26.1
2015-Apr-20 03:40 107 0 gusting 0 26.1
2015-Apr-20 03:30 348 26.1
2015-Apr-20 03:20 139 26.1
2015-Apr-20 03:10 140 26.1
2015-Apr-20 03:00 090 26.1
2015-Apr-20 02:50 058 26.1
2015-Apr-20 02:40 031 26.1
2015-Apr-20 02:30 011 26.1
2015-Apr-20 02:20 130 26.1
2015-Apr-20 02:10 076 26.1
2015-Apr-20 02:00 165 26.1
2015-Apr-20 01:50 083 26.1
2015-Apr-20 01:40 124 26.1
2015-Apr-20 01:30 063 26.1
2015-Apr-20 01:20 186 0 gusting 0 26.1
2015-Apr-20 01:10 091 26.1
2015-Apr-20 01:00 083 0 gusting 0 26.7
2015-Apr-20 00:50 170 26.7
2015-Apr-20 00:40 175 26.7
2015-Apr-20 00:30 108 26.7
2015-Apr-20 00:20 113 26.7
2015-Apr-20 00:10 159 26.7
2015-Apr-20 00:00 162 26.7
2015-Apr-19 23:50 093 27.2
2015-Apr-19 23:40 141 27.2
2015-Apr-19 23:30 106 0 gusting 1 27.2
2015-Apr-19 23:20 166 27.8
2015-Apr-19 23:10 181 0 gusting 1 27.8
2015-Apr-19 23:00 180 1 gusting 1 28.3
2015-Apr-19 22:54 052 0 gusting 0 28.3
2015-Apr-19 22:50 154 2 gusting 4 28.3
2015-Apr-19 22:40 108 28.9
2015-Apr-19 22:30 101 0 gusting 4 28.9
2015-Apr-19 22:20 134 2 gusting 4 29.4
2015-Apr-19 22:10 143 0 gusting 1 28.9
2015-Apr-19 22:00 166 0 gusting 1 28.9
2015-Apr-19 21:50 059 1 gusting 2 28.3
2015-Apr-19 21:40 186 28.9
2015-Apr-19 21:30 090 29.4
2015-Apr-19 21:20 068 28.9
2015-Apr-19 21:10 130 0 gusting 4 29.4
2015-Apr-19 21:00 181 30.0
2015-Apr-19 20:50 184 1 gusting 8 30.0
2015-Apr-19 20:40 178 3 gusting 6 30.0
2015-Apr-19 20:30 250 29.4
2015-Apr-19 20:20 145 3 gusting 7 29.4
2015-Apr-19 20:10 125 2 gusting 7 29.4
2015-Apr-19 20:00 183 2 gusting 11 29.4
2015-Apr-19 19:50 127 4 gusting 6 29.4
2015-Apr-19 19:40 181 6 gusting 7 29.4
2015-Apr-19 19:30 185 2 gusting 6 29.4
2015-Apr-19 19:20 146 7 gusting 7 29.4
2015-Apr-19 19:10 085 0 gusting 5 30.0
2015-Apr-19 19:00 168 30.0
2015-Apr-19 18:50 185 2 gusting 6 29.4
2015-Apr-19 18:40 120 2 gusting 7 30.0
2015-Apr-19 18:30 105 0 gusting 1 30.6
2015-Apr-19 18:20 170 2 gusting 6 30.0
2015-Apr-19 18:10 189 2 gusting 5 30.0
2015-Apr-19 18:00 353 1 gusting 6 29.4
2015-Apr-19 17:50 173 4 gusting 6 29.4
2015-Apr-19 17:40 112 2 gusting 5 30.0
2015-Apr-19 17:30 141 3 gusting 6 30.0
2015-Apr-19 17:20 164 5 gusting 6 30.0
2015-Apr-19 17:10 101 30.6
2015-Apr-19 17:00 082 0 gusting 0 30.0
2015-Apr-19 16:50 247 30.6
2015-Apr-19 16:40 125 0 gusting 2 30.0
2015-Apr-19 16:30 157 0 gusting 1 30.6
2015-Apr-19 16:20 193 30.6
2015-Apr-19 16:10 112 0 gusting 0 30.6
2015-Apr-19 16:00 132 1 gusting 2 30.0
2015-Apr-19 15:50 297 0 gusting 5 30.0
2015-Apr-19 15:40 037 0 gusting 4 30.0
2015-Apr-19 15:30 096 30.0
2015-Apr-19 15:20 180 0 gusting 0 30.6
2015-Apr-19 15:10 126 30.0
2015-Apr-19 15:00 156 2 gusting 4 30.0
2015-Apr-19 14:50 133 29.4
2015-Apr-19 14:40 217 0 gusting 1 29.4
2015-Apr-19 14:30 039 29.4
2015-Apr-19 14:20 167 29.4
2015-Apr-19 14:10 143 29.4
2015-Apr-19 14:00 011 29.4
2015-Apr-19 13:50 003 28.9
2015-Apr-19 13:40 160 29.4
2015-Apr-19 13:30 002 28.9
2015-Apr-19 13:20 062 1 gusting 2 28.9
2015-Apr-19 13:10 124 0 gusting 5 28.3
2015-Apr-19 13:00 070 0 gusting 0 27.8
2015-Apr-19 12:50 195 26.7
2015-Apr-19 12:40 050 0 gusting 0 26.7
2015-Apr-19 12:30 092 0 gusting 1 26.7
2015-Apr-19 12:20 092 26.7
2015-Apr-19 12:10 050 26.7
2015-Apr-19 12:00 030 26.1
2015-Apr-19 11:50 286 26.1
2015-Apr-19 11:40 025 26.1
2015-Apr-19 11:30 076 25.6
2015-Apr-19 11:20 005 0 gusting 0 25.6
2015-Apr-19 11:10 081 25.6
2015-Apr-19 11:00 274 0 gusting 1 25.6
2015-Apr-19 10:50 112 25.6
2015-Apr-19 10:40 102 0 gusting 0 25.6
2015-Apr-19 10:30 067 25.6
2015-Apr-19 10:20 087 25.6
2015-Apr-19 10:10 217 0 gusting 0 26.1
2015-Apr-19 10:00 043 0 gusting 2 25.6
2015-Apr-19 09:50 146 0 gusting 0 26.1
2015-Apr-19 09:40 155 0 gusting 1 25.6
2015-Apr-19 09:30 267 0 gusting 4 25.6
2015-Apr-19 09:20 088 3 gusting 5 25.6
2015-Apr-19 09:10 152 25.6
2015-Apr-19 09:00 145 1 gusting 6 26.1
2015-Apr-19 08:50 190 2 gusting 5 25.6
2015-Apr-19 08:40 163 0 gusting 1 25.6
2015-Apr-19 08:30 106 0 gusting 6 26.1
2015-Apr-19 08:20 211 2 gusting 4 26.1
2015-Apr-19 08:10 188 0 gusting 4 26.1
2015-Apr-19 08:00 097 1 gusting 6 25.6